Location: Dallas
(32.7833°N, 96.8000°W)
Time: 01:20:50
(UTC-05:00)

Envisat - Pass Details

Date: 04 July 2022
Orbit: 763 x 765 km, 98.2° (Epoch: 11 August)

Event Time Altitude Azimuth Distance (km) Brightness Sun altitude
Rises 05:37:18 0° 17° (NNE) 3,233 7.1 -9.2°
Reaches altitude 10° 05:39:39 10° 21° (NNE) 2,304 6.4 -8.8°
Maximum altitude 05:44:40 60° 101° (E) 874 3.6 -8.0°
Drops below altitude 10° 05:49:38 10° 181° (S) 2,289 5.1 -7.1°
Sets 05:51:57 0° 184° (S) 3,211 5.9 -6.7°
